Columbia, SC

12:06 AM EDT on April 21, 2018 (GMT -0400)
Columbia Metro

Weather History for KCAE - August, 2014

Change the Weather History Date:

Monday, August 11, 2014

  Actual Average Record
Temperature  
Mean Temperature 84 °F 81 °F  
Max Temperature 92 °F 91 °F 101 °F (1956)
Min Temperature 76 °F 72 °F 61 °F (2002)
Degree Days  
Heating Degree Days 0 0  
Month to date heating degree days 0 0  
Since 1 June heating degree days 0 1  
Since 1 July heating degree days 0 0  
Cooling Degree Days 19 16  
Month to date cooling degree days 179 186  
Year to date cooling degree days 1680 1463  
Since 1 June cooling degree days 1266 1142  
Growing Degree Days 33 (Base 50)    
Moisture  
Dew Point 72 °F    
Average Humidity 67    
Maximum Humidity 85    
Minimum Humidity 49    
Precipitation  
Precipitation T in 0.17 in 3.00 in (1988)
Month to date precipitation 4.77 2.04  
Year to date precipitation 27.97 28.70  
Sea Level Pressure  
Sea Level Pressure 29.98 in    
Wind  
Wind Speed 3 mph (ENE)    
Max Wind Speed 12 mph    
Max Gust Speed 15 mph    
Visibility 9 miles    
Events Rain    
T = Trace of Precipitation, MM = Missing Value Source: NWS Daily Summary

Daily Weather History Graph

Daily Weather History Graph

Search for Another Location

Airport or City:

Astronomy

Aug. 11, 2014 Rise Set
Actual Time 6:43 AM EDT 8:15 PM EDT
Civil Twilight 6:16 AM EDT 8:42 PM EDT
Nautical Twilight 5:44 AM EDT 9:14 PM EDT
Astronomical Twilight 5:10 AM EDT 9:47 PM EDT
Moon 8:49 PM EDT (8/11) 7:41 AM EDT (8/11)
Length of Visible Light 14h 25m
Length of Day
13h 32m
Full, 99% of the Moon is Illuminated
Aug 11
Full
Aug 17
Last Quarter
Aug 25
New
Sep 2
First Quarter
Sep 8
Full

Hourly Weather History & Observations

Time (EDT) Temp. Heat Index Dew Point Humidity Pressure Visibility Wind Dir Wind Speed Gust Speed Precip Events Conditions
12:56 AM 78.1 °F - 71.1 °F 79% 30.02 in 9.0 mi NNE 5.8 mph - N/A   Overcast
1:49 AM 78.8 °F - 71.6 °F 78% 30.02 in 10.0 mi NNE 4.6 mph - N/A   Overcast
1:56 AM 78.1 °F - 71.1 °F 79% 30.01 in 10.0 mi NNE 4.6 mph - N/A   Overcast
2:56 AM 77.0 °F - 71.1 °F 82% 30.00 in 10.0 mi ENE 4.6 mph - N/A   Overcast
3:22 AM 77.0 °F - 71.1 °F 82% 30.00 in 10.0 mi ENE 4.6 mph - N/A   Overcast
3:56 AM 77.0 °F - 71.6 °F 83% 29.99 in 10.0 mi Calm Calm - N/A   Overcast
4:37 AM 77.0 °F - 71.1 °F 82% 29.99 in 10.0 mi Calm Calm - N/A   Overcast
4:56 AM 77.0 °F - 71.1 °F 82% 29.99 in 10.0 mi Calm Calm - N/A   Overcast
5:56 AM 77.0 °F - 71.1 °F 82% 29.99 in 8.0 mi Calm Calm - N/A   Overcast
6:04 AM 77.0 °F - 71.1 °F 82% 29.99 in 8.0 mi Calm Calm - N/A   Overcast
6:56 AM 77.0 °F - 72.0 °F 84% 29.99 in 5.0 mi East 4.6 mph - N/A   Haze
7:25 AM 77.0 °F - 72.0 °F 84% 30.01 in 5.0 mi East 5.8 mph - N/A   Haze
7:43 AM 77.0 °F - 72.0 °F 84% 30.01 in 5.0 mi East 4.6 mph - N/A   Haze
7:56 AM 77.0 °F - 72.0 °F 84% 30.01 in 4.0 mi ENE 4.6 mph - N/A   Haze
8:08 AM 77.0 °F - 72.0 °F 84% 30.02 in 4.0 mi ENE 3.5 mph - N/A   Haze
8:56 AM 78.1 °F - 72.0 °F 81% 30.01 in 6.0 mi East 3.5 mph - N/A   Haze
9:30 AM 80.1 °F 83.8 °F 72.0 °F 76% 30.02 in 7.0 mi East 4.6 mph - N/A   Overcast
9:56 AM 81.0 °F 85.2 °F 72.0 °F 74% 30.02 in 8.0 mi ESE 4.6 mph - N/A   Overcast
10:08 AM 81.0 °F 85.2 °F 72.0 °F 74% 30.03 in 10.0 mi East 4.6 mph - N/A   Overcast
10:56 AM 82.0 °F 87.4 °F 73.0 °F 74% 30.02 in 10.0 mi ESE 4.6 mph - N/A   Mostly Cloudy
11:34 AM 84.9 °F 91.4 °F 73.0 °F 67% 30.02 in 10.0 mi Calm Calm - N/A   Mostly Cloudy
11:56 AM 84.0 °F 89.6 °F 72.0 °F 67% 30.00 in 10.0 mi Calm Calm - N/A   Mostly Cloudy
12:56 PM 84.9 °F 90.7 °F 72.0 °F 65% 29.99 in 10.0 mi Variable 3.5 mph - N/A   Mostly Cloudy
1:56 PM 87.1 °F 92.8 °F 71.1 °F 59% 29.97 in 10.0 mi Variable 4.6 mph - N/A   Scattered Clouds
2:56 PM 89.1 °F 93.7 °F 69.1 °F 52% 29.94 in 10.0 mi Calm Calm - N/A   Mostly Cloudy
3:56 PM 91.0 °F 96.6 °F 70.0 °F 50% 29.92 in 10.0 mi NNE 9.2 mph - N/A   Scattered Clouds
4:56 PM 86.0 °F 93.0 °F 73.0 °F 65% 29.92 in 8.0 mi NNW 5.8 mph - 0.00 in Rain Light Rain
5:56 PM 87.1 °F 93.6 °F 72.0 °F 61% 29.91 in 10.0 mi NNE 5.8 mph - 0.00 in   Mostly Cloudy
6:56 PM 86.0 °F 93.8 °F 73.9 °F 67% 29.90 in 10.0 mi Calm Calm - N/A   Mostly Cloudy
7:56 PM 86.0 °F 91.8 °F 71.6 °F 62% 29.91 in 10.0 mi NNE 3.5 mph - N/A   Scattered Clouds
8:56 PM 82.0 °F 88.6 °F 75.0 °F 79% 29.91 in 10.0 mi SE 6.9 mph - N/A   Scattered Clouds
9:56 PM 80.1 °F 84.5 °F 73.9 °F 81% 29.92 in 10.0 mi ESE 4.6 mph - N/A   Scattered Clouds
10:56 PM 79.0 °F - 73.9 °F 84% 29.93 in 10.0 mi East 4.6 mph - N/A   Scattered Clouds
11:56 PM 79.0 °F - 73.9 °F 84% 29.93 in 10.0 mi Calm Calm - N/A   Scattered Clouds